Regional Weather Roundup
Issued by NWS Cleveland, OH

Home | Current Version | Previous Version | Graphics & Text | Print | Product List | Glossary On
Versions: 1 2 3 4 5 6 7 8 9 10 11 12 13 14 15 16 17 18 19 20 21 22 23 24 25 26 27 28 29 30 31 32 33 34 35 36 37 38 39 40 41 42 43 44 45 46 47 48 49 50
000
ASUS41 KCLE 232200
RWRCLE
OHIO REGIONAL WEATHER ROUNDUP
NATIONAL WEATHER SERVICE WILMINGTON, OH
600 PM EDT TUE MAY 23 2017

NOTE: "FAIR" INDICATES FEW OR NO CLOUDS BELOW 12,000 FEET WITH NO
SIGNIFICANT WEATHER AND/OR OBSTRUCTIONS TO VISIBILITY.

OHZ001>008-015>018-024>027-034-035-043-044-232300-
   NORTHWEST OHIO

CITY           SKY/WX    TMP DP  RH WIND       PRES   REMARKS
DEFIANCE       FAIR      73  44  35 E9        29.70F
FINDLAY        FAIR      73  45  36 E8        29.69F
TOLEDO EXPRESS FAIR      71  49  45 NE12      29.72F
TOLEDO EXEC    CLOUDY    68  51  54 NE8       29.73F
LIMA           FAIR      70  50  49 NE6       29.70F
$$

OHZ009>014-019>023-028>033-038-089-232300-
   NORTHEAST OHIO

CITY           SKY/WX    TMP DP  RH WIND       PRES   REMARKS
CLE-HOPKINS    PTSUNNY   70  50  49 N9        29.75F
CLE-LAKEFRONT  FAIR      63  52  67 NE14      29.72F
CUY CO. ARPT   MOSUNNY   75  45  33 SE12      29.74F
LORAIN-ELYRIA  FAIR      69  46  43 NE14      29.73S
ASHTABULA      FAIR      73  44  35 VRB3      29.75F
AKRON-CANTON   PTSUNNY   73  47  39 S13       29.73F
WOOSTER        NOT AVBL
MANSFIELD      FAIR      72  45  37 SE8       29.72F
YOUNGSTOWN     CLOUDY    72  44  36 E10       29.75F
$$

OHZ042-051>053-060>062-070>072-077>081-232300-
  SOUTHWEST OHIO

CITY           SKY/WX    TMP DP  RH WIND       PRES   REMARKS
CINC-COVINGTON CLOUDY    73  49  42 S5        29.68F
CINC-LUNKEN    PTSUNNY   73  55  53 S8        29.68S
HAMILTON       FAIR      76  46  34 CALM      29.68F
DAYTON         NOT AVBL
WRIGHT-PAT AFB CLOUDY    73  43  34 SE6       29.69S
DAYTON GENERAL CLOUDY    72  46  39 CALM      29.68F
WILMINGTON     CLOUDY    70  49  47 SE6       29.70R
$$

OHZ036-037-039>041-045>050-054>059-063>069-073>076-082>088-232300-
  CENTRAL AND SOUTHEAST OHIO

CITY           SKY/WX    TMP DP  RH WIND       PRES   REMARKS
COLUMBUS       CLOUDY    73  49  42 E10       29.69F
OSU AIRPORT    FAIR      73  47  39 E10       29.69F
BOLTON FIELD   SUNNY     72  48  43 SE8       29.70F
RICKENBACK AFB NOT AVBL
NEWARK         FAIR      74  46  36 SE8       29.70F
MARION         FAIR      73  41  31 SE12      29.70F
LANCASTER      FAIR      73  49  42 SE8       29.71S
ZANESVILLE     FAIR      72  54  53 SE7       29.71F
NEW PHILLY     FAIR      74  49  41 SE10      29.73S
$$




USA.gov is the U.S. government's official web portal to all federal, state and local government web resources and services.